Home   Weather   Larnaca   Past weeks
Flag for Cyprus

Past Weather in Larnaca, Cyprus — Yesterday and Last 2 Weeks

Now
82 °F

Passing clouds.


Feels Like: 91 °F
Forecast: 91 / 74 °F
Wind: 10 mph from South

Location: Larnaca Airport

Current Time: Jul 23, 2019 at 8:44:57 pm

Latest Report: Jul 23, 2019 at 8:00 pm


Visibility: 5 mi

Pressure: 29.62 "Hg

Humidity: 84%

Dew Point: 77 °F

Location of LarnacaLocation

Past Weather in Larnaca — Graph

°F

Larnaca Temperature Yesterday

Maximum temperature yesterday: 95 °F (at 9:00 am)
Minimum temperature yesterday: 75 °F (at 4:00 am)
Average temperature yesterday: 86 °F

High & Low Weather Summary for the Past Weeks

 TemperatureHumidityPressure
High97 °F (Jul 21, 2:30 pm)94% (Jul 22, 4:00 am)29.83 "Hg (Jul 22, 4:00 am)
Low70 °F (Jul 15, 3:30 am)28% (Jul 22, 9:00 am)29.53 "Hg (Jul 17, 5:30 pm)
Average83 °F70%29.69 "Hg
* Reported Jul 8 7:00 pm — Jul 23 7:00 pm, Larnaca. Weather by CustomWeather, © 2019

Note: Actual official high and low records may vary slightly from our data, if they occured in-between our weather recording intervals... More about our weather records

Advertising

Larnaca Weather History for the Previous 24 Hours

Scroll right to see more
 ConditionsComfort  
Time TempWeatherWind HumidityBarometerVisibility
7:00 pm
Tue, Jul 23
84 °FPassing clouds.12 mph79%29.62 "HgN/A
6:30 pm86 °FPassing clouds.12 mph75%29.62 "HgN/A
6:00 pm88 °FPassing clouds.13 mph70%29.62 "HgN/A
5:30 pm90 °FPassing clouds.13 mph59%29.62 "HgN/A
5:00 pm91 °FPassing clouds.15 mph46%29.62 "HgN/A
4:30 pm93 °FPassing clouds.14 mph36%29.62 "HgN/A
4:00 pm95 °FPassing clouds.15 mph34%29.62 "HgN/A
3:30 pm95 °FPassing clouds.14 mph28%29.65 "HgN/A
3:00 pm95 °FPassing clouds.14 mph28%29.65 "HgN/A
2:30 pm93 °FPassing clouds.14 mph41%29.65 "HgN/A
2:00 pm93 °FPassing clouds.13 mph41%29.65 "HgN/A
1:30 pm91 °FPassing clouds.14 mph46%29.65 "HgN/A
1:00 pm91 °FPassing clouds.14 mph52%29.65 "HgN/A
12:30 pm91 °FPassing clouds.14 mph56%29.65 "HgN/A
12:00 pm90 °FPassing clouds.12 mph55%29.65 "HgN/A
11:30 am88 °FPassing clouds.12 mph66%29.65 "HgN/A
11:00 am86 °FPassing clouds.12 mph79%29.65 "HgN/A
10:30 am86 °FPassing clouds.12 mph79%29.65 "HgN/A
10:00 am86 °FSunny.9 mph75%29.65 "Hg10 mi
9:30 am86 °FSunny.8 mph66%29.65 "Hg10 mi
9:00 am86 °FPassing clouds.6 mph66%29.65 "HgN/A
8:30 am86 °FPassing clouds.5 mph59%29.65 "HgN/A
8:00 am86 °FSunny.2 mph55%29.65 "Hg10 mi
7:30 am84 °FSunny.2 mph51%29.65 "Hg10 mi
7:00 am79 °FSunny.1 mph65%29.65 "Hg10 mi
6:30 am75 °FSunny.No wind74%29.62 "Hg10 mi
6:00 am73 °FSunny.No wind78%29.62 "Hg10 mi
5:30 am73 °FPassing clouds.1 mph74%29.62 "HgN/A
5:00 am73 °FPassing clouds.3 mph78%29.62 "HgN/A
4:30 am73 °FPassing clouds.3 mph89%29.62 "Hg4 mi
4:00 am73 °FPassing clouds.6 mph89%29.62 "Hg4 mi
3:30 am73 °FPassing clouds.6 mph89%29.62 "Hg4 mi
3:00 am73 °FPassing clouds.8 mph94%29.62 "Hg4 mi
2:30 am75 °FPassing clouds.6 mph89%29.62 "Hg4 mi
2:00 am75 °FPassing clouds.7 mph94%29.65 "Hg4 mi
1:30 am77 °FPassing clouds.7 mph89%29.65 "Hg4 mi
1:00 am77 °FFog.8 mph94%29.65 "Hg3 mi
12:30 am77 °FFog.9 mph94%29.65 "Hg3 mi
12:00 am79 °FFog.8 mph89%29.65 "Hg3 mi
11:30 pm
Mon, Jul 22
79 °FFog.8 mph89%29.68 "Hg3 mi
11:00 pm79 °FPassing clouds.8 mph89%29.68 "Hg4 mi
10:30 pm79 °FPassing clouds.9 mph89%29.68 "Hg4 mi
10:00 pm81 °FPassing clouds.8 mph84%29.68 "Hg5 mi
9:30 pm81 °FPassing clouds.8 mph89%29.68 "HgN/A
9:00 pm81 °FPassing clouds.10 mph89%29.68 "HgN/A
8:30 pm81 °FPassing clouds.10 mph89%29.68 "HgN/A
8:00 pm82 °FClear.12 mph84%29.68 "Hg10 mi
Weather by CustomWeather, © 2019

See weather overview